Regional Weather Roundup
Issued by NWS

Home | Current Version | Previous Version | Graphics & Text | Print | Product List | Glossary On
Versions: 1 2 3 4 5 6 7 8 9 10 11 12 13 14 15 16 17 18 19 20 21 22 23 24 25 26 27 28 29 30 31 32 33 34 35 36 37 38 39 40 41 42 43 44 45 46 47 48 49 50
285
ASUS45 KBOI 141810
RWRID

IDAHO REGIONAL WEATHER ROUNDUP
NATIONAL WEATHER SERVICE BOISE ID
1100 AM MST THU DEC 14 2017

NOTE: "FAIR" INDICATES FEW OR NO CLOUDS BELOW 12000 FEET
WITH NO SIGNIFICANT WEATHER AND/OR OBSTRUCTIONS TO VISIBILITY

IDZ012-014-141900-
SOUTHWEST IDAHO


CITY           SKY/WX    TMP DP  RH WIND       PRES   REMARKS
BOISE          CLOUDY    26  22  84 S9        30.58R FOG     WCI  17
CALDWELL       NOT AVBL
$$

IDZ016-017-141900-
SOUTHCENTRAL IDAHO


CITY           SKY/WX    TMP DP  RH WIND       PRES   REMARKS
BURLEY         CLOUDY    23  21  92 E6        30.51S FOG     WCI  16
JEROME         FOG       26  22  84 E10       30.52S VSB 1/4 WCI  16
TWIN FALLS     FOG       23  21  92 E6        30.51S VSB 1/4 WCI  16
$$

IDZ019>023-141900-
SOUTHEAST IDAHO


CITY           SKY/WX    TMP DP  RH WIND       PRES   REMARKS
IDAHO FALLS    FOG       23  22  96 CALM      30.50F VSB 1
POCATELLO      FOG       22  20  92 CALM      30.53S VSB 1/2
REXBURG        FOG       20  19  96 E3        30.46S VSB 3/4
$$

IDZ006-010-011-018-031-032-141900-
CENTRAL IDAHO MOUNTAINS


CITY           SKY/WX    TMP DP  RH WIND       PRES   REMARKS
MCCALL         FOG       20  18  92 CALM      30.42S VSB 1/4
HAILEY         MOSUNNY   28  19  69 NW9       30.48R WCI  20
STANLEY          N/A     19  14  81 E3        30.49S
SALMON         CLOUDY    29  23  78 CALM      30.53F
CHALLIS        CLOUDY    24  21  88 CALM      30.50F
$$

IDZ002-004-006-007-026-141900-
NORTHERN IDAHO


CITY           SKY/WX    TMP DP  RH WIND       PRES   REMARKS
LEWISTON       CLOUDY    33  28  81 NE6       30.54F WCI  28
LOWELL           N/A     34  31  88 CALM      30.57S
COEUR D`ALENE  CLOUDY    31  28  89 NE5       30.52R WCI  26
MULLAN PASS    MOSUNNY   27  23  85 S7        30.34S WCI  19
$$




USA.gov is the U.S. government's official web portal to all federal, state and local government web resources and services.